User: anonymous   Login
Location: Unspecified
(0.0000°N, 0.0000°E)
Time: 23:02:22
(UTC+00:00)
Language:

TRSI - Orbit

View from above orbital plane
View from above orbital plane
View from above satellite
View from above satellite

Ground track
Ground track

The orbit data is extracted from the following two-line orbital elements,

1 44830U 19084G   20283.37625441 +.14504533 +23319-5 +28099-3 0  9997
2 44830 096.9282 155.2233 0011473 239.9810 120.0357 16.46538413048546
Epoch (UTC): 09 October 2020 09:01:48
Eccentricity: 0.0011473
inclination: 96.9282°
perigee height: 141 km
apogee height: 156 km
right ascension of ascending node: 155.2233°
argument of perigee: 239.9810°
revolutions per day: 16.46538413
mean anomaly at epoch: 120.0357°
orbit number at epoch: 4854

The dashed part of the orbit path shows where the satellite is in the earth's shadow,  

DLR